Вернуться в каталог

SHENQI

АктивенНаукаSSO
NORAD 61230·PAYLOAD·🇨🇳 China
Это название спутника еще не подтверждено официальными источниками.

Запущен Sep 24, 2024 с Yellow Sea Launch Area

Loading…

Ближайшие Пролёты (ближайшие 24 часа)

TLE

СвежийSource: Space-Track

Эпоха: Sep 14, 2026, 13:13 UTC

1 61230U 24173D   26257.55076242  .00011550  00000-0  37163-3 0  9997
2 61230  97.3494 336.0447 0007306 302.1126  57.9407 15.32366536110136

Отслеживайте SHENQI в реальном времени с AllMySat

Download on the App Store